CAPE
1 0 4 7 5 1 10 5 2 10 3 0 1 14 31 18 10 29 10 23 7 4 5 15 4 1 14 9 6 0 0 0 15 39 46 4 7 0 2 0 0 2 5 1 2 12 0 0 0 0 0 0 0 0
3 5 6 6 11 7 0 8 12 5 4 4 1 0 14 27 15 30 14 8 16 22 0 0 4 4 11 0 7 1 0 3 3 0 0 0 10 3 1 0 0 1 30 23 8 0 0 0 0 0 0 0 0 0
8 8 0 3 0 0 7 10 3 0 0 0 7 0 0 21 32 23 9 5 2 1 4 9 0 0 2 0 2 30 1 0 7 27 39 52 67 3 3 0 0 0 65 124 64 0 0 0 0 0 0 0 0 0
13 3 1 9 8 14 9 0 0 2 13 4 10 0 2 10 28 29 16 13 2 0 0 1 0 0 0 2 0 0 0 6 6 20 45 18 8 5 3 0 2 4 44 41 28 0 0 0 0 0 0 0 0 0
6 11 9 3 10 11 15 13 19 23 15 10 6 4 1 0 5 20 24 15 1 0 2 0 5 0 0 0 0 0 1 0 15 34 11 2 0 0 9 0 0 0 32 33 0 5 0 0 0 0 0 0 0 0
2 5 1 2 11 25 16 5 0 1 2 6 4 3 5 1 3 9 1 11 2 1 0 0 2 0 0 0 2 1 0 0 37 20 9 9 0 24 3 1 0 0 90 31 40 25 0 0 0 0 0 0 0 0
2 3 0 0 4 11 8 3 0 0 0 0 8 6 0 0 4 0 1 0 1 6 0 0 2 7 18 7 12 15 16 9 18 5 5 31 12 25 28 1 0 0 8 20 0 0 0 0 0 0 0 0 0 0
1 1 1 0 0 5 11 4 4 0 0 0 1 0 15 1 4 1 3 2 5 2 0 0 1 0 25 6 5 2 4 0 4 2 2 5 21 7 2 0 0 2 0 0 0 0 0 0 0 0 0 0 0 0
2 0 0 0 0 0 0 0 0 0 0 0 0 0 0 0 1 2 0 3 8 0 0 0 2 3 0 0 0 0 6 6 0 0 5 13 4 6 0 4 17 6 0 0 0 0 0 0 0 0 0 0 0 1
1 0 0 0 0 0 0 0 0 0 0 0 0 0 0 1 9 5 3 0 0 0 0 0 0 1 0 0 0 0 0 28 0 0 4 3 3 1 5 0 0 0 0 0 0 0 0 0 0 0 0 0 2 6
0 0 0 0 0 0 0 0 0 0 0 0 0 0 1 0 1 0 0 0 0 0 0 0 1 5 0 0 0 1 0 0 1 1 0 1 0 0 0 0 0 0 0 0 0 0 0 0 0 1 5 4 4 3
0 0 0 0 0 0 0 0 0 0 0 0 3 0 0 4 0 0 0 0 0 2 0 0 0 14 0 0 0 0 0 0 0 0 1 0 1 2 1 1 2 0 0 0 0 0 0 2 4 4 3 3 3 3
0 0 0 0 0 0 0 0 0 0 0 0 0 0 0 0 0 0 0 1 2 0 0 0 0 0 0 0 0 0 0 0 2 1 1 0 1 3 2 1 1 1 0 1 3 4 3 3 3 3 2 3 3 3
0 0 0 0 0 0 0 0 0 0 0 0 0 0 0 0 2 1 0 2 1 1 1 0 0 0 0 0 0 0 0 0 0 1 1 2 0 1 2 1 0 1 2 3 4 3 2 2 1 2 1 1 1 1
0 0 0 0 0 0 0 0 0 0 0 0 0 0 2 0 2 1 0 0 0 0 2 1 1 3 1 0 1 1 0 0 0 0 0 0 1 1 2 3 3 3 3 3 3 2 1 1 1 2 2 2 2 2
0 0 0 0 0 0 0 0 0 0 0 0 0 1 0 1 0 0 2 1 1 0 0 0 0 0 0 0 0 0 0 0 0 1 2 2 1 3 4 3 2 2 2 2 3 2 2 2 2 2 2 2 1 0
0 0 0 0 0 0 0 0 0 0 0 0 0 0 0 4 1 0 0 0 0 0 0 0 0 0 0 0 0 0 0 0 0 3 2 3 4 5 2 2 2 2 2 2 3 1 1 0 0 0 0 0 0 0
0 0 0 0 0 0 0 0 0 0 0 0 0 0 0 0 0 0 0 0 0 0 0 0 0 0 0 0 0 0 0 3 2 2 2 2 2 3 3 2 2 2 2 2 1 2 1 0 0 0 0 0 0 0
0 0 0 0 0 0 0 0 0 0 0 0 0 0 0 0 0 0 0 0 0 0 0 0 0 0 0 0 0 0 3 2 2 3 3 2 1 2 1 1 2 2 3 2 1 0 0 0 0 0 0 0 0 0
0 0 0 0 0 0 0 0 0 0 0 0 0 0 0 0 0 0 0 0 0 0 0 0 0 0 0 0 0 1 2 2 2 1 3 3 2 1 2 2 2 2 2 2 0 0 0 0 0 0 0 0 0 0
0 0 0 0 0 0 0 0 0 0 0 0 0 0 0 0 0 0 0 0 0 0 0 0 0 0 0 0 0 2 2 1 1 0 0 0 1 1 1 1 2 1 1 1 0 0 0 0 0 0 0 1 0 0
0 0 0 0 0 0 0 0 0 0 0 0 0 0 0 0 0 0 0 0 0 0 0 0 0 0 0 0 0 0 1 0 0 0 1 1 0 0 1 2 1 2 2 1 0 0 0 0 0 1 0 0 0 0
0 0 0 0 0 0 0 0 0 0 0 0 0 0 0 0 0 0 0 0 0 0 0 0 0 0 0 0 0 0 0 0 0 1 2 1 0 0 0 1 3 1 1 0 0 0 0 0 1 1 0 0 0 0
0 0 0 0 0 0 0 0 0 0 0 1 0 0 0 0 0 0 0 0 0 0 0 0 0 0 0 0 0 0 0 0 1 2 1 2 2 1 2 3 2 0 0 1 1 0 2 2 1 0 0 0 0 0
0 0 0 0 0 0 0 0 0 0 0 0 0 0 0 0 0 0 0 0 0 0 0 0 0 0 0 0 0 0 0 0 0 0 1 1 2 1 1 2 1 1 0 2 3 3 3 2 0 0 0 0 0 0
0 0 0 0 0 0 0 0 0 0 0 0 0 0 0 0 0 0 0 0 1 1 0 0 0 0 0 0 0 0 0 0 0 0 1 1 2 1 1 1 2 2 0 0 0 1 2 2 1 0 0 0 0 0
0 0 0 0 0 0 0 0 0 0 0 0 0 0 0 0 0 0 0 1 2 1 0 1 1 2 1 0 0 0 0 0 0 0 0 0 0 0 0 0 0 0 0 2 0 0 0 0 0 0 0 0 0 0
0 0 0 0 0 0 0 0 0 0 0 0 0 0 0 0 0 1 1 0 0 1 0 0 0 0 2 2 1 0 1 0 0 1 2 1 0 0 0 0 0 0 0 0 0 0 0 0 0 0 0 0 0 0
0 0 0 0 0 0 0 0 0 0 0 0 0 0 0 2 1 1 0 0 2 0 0 0 1 2 1 2 3 2 2 1 0 0 0 0 0 0 0 0 0 0 0 0 0 0 0 0 0 0 0 0 0 0
0 2 0 0 0 0 0 0 0 0 0 1 0 0 0 1 0 0 2 1 0 0 1 1 1 1 1 1 0 2 2 1 0 0 0 0 0 0 0 0 0 0 0 0 0 1 1 1 1 1 1 0 0 0
0 1 0 0 0 0 0 1 1 1 1 1 1 2 2 0 0 1 0 0 0 0 0 0 1 1 1 0 0 0 0 0 0 0 0 0 0 0 0 0 0 0 0 0 0 0 0 1 2 1 0 0 0 0
0 0 0 0 0 0 1 2 0 1 0 1 1 0 1 2 3 2 0 0 1 1 1 1 0 0 0 0 0 0 0 0 0 0 0 0 0 0 0 0 0 1 0 2 3 1 0 0 1 1 0 0 0 0
0 0 0 0 1 0 0 0 0 0 0 0 0 0 0 1 0 2 1 2 2 0 3 3 2 1 0 0 0 1 0 1 0 0 0 0 0 0 0 0 0 0 0 2 2 2 0 0 0 0 0 0 0 0
CIN
0 0 -2 -1 0 0 -2 0 -12 -9 -10 -3 -3 -6 0 -1 0 0 0 -1 0 0 -1 -1 -1 -1 -3 -3 -2 0 -2 0 -3 -1 -1 -1 -3 0 -2 0 0 -12 -6 -2 -1 -37 0 0 0 0 0 0 0 0
0 -2 -4 -2 -4 -5 0 -14 -12 -9 -12 -20 -11 -2 -4 0 0 0 0 0 0 0 0 -1 -3 -3 -3 -1 -2 -3 -6 -4 -4 0 0 -1 -2 -1 -2 0 0 0 -3 -33 -49 0 0 0 0 0 0 0 0 0
0 -3 -2 -3 -2 -12 -18 -16 -23 0 0 -1 -3 0 -1 0 0 0 0 0 0 0 0 0 0 0 -2 0 -3 0 -1 0 -4 -2 -2 -4 -3 -15 0 0 0 0 -57 -2 -9 0 0 0 0 0 -98 0 0 0
-2 -5 -5 -4 -6 -13 -23 -30 0 -4 -3 -4 -3 0 -2 0 0 0 0 0 0 0 0 -1 0 0 0 -3 0 0 0 -10 -4 -8 -1 -14 -1 -1 0 0 0 0 -24 -4 -19 -34 0 0 0 0 0 0 0 0
-5 -1 -1 -7 -5 -6 -12 -6 -1 -3 -1 -5 -11 -11 -7 -1 -2 0 0 0 0 -1 0 0 -7 0 0 0 0 0 0 0 0 -1 -5 0 0 -1 -1 0 0 0 -20 -5 0 -9 0 0 0 0 0 0 0 0
-2 0 -1 -7 -11 -3 -3 -3 -4 -3 -4 -9 -11 -8 -2 -3 -2 0 0 0 0 0 0 0 -3 0 0 -1 -1 0 0 0 -1 0 0 -1 -1 -2 0 0 0 0 -4 -11 -26 -85 0 0 0 0 0 0 0 0
0 0 0 0 -13 -6 -11 -26 0 0 0 0 -9 -9 0 0 0 0 -1 0 0 0 0 0 -3 -17 -22 -29 0 0 -1 -1 0 0 0 0 -8 -1 -2 0 0 -3 -41 -100 0 0 0 0 0 0 0 0 0 0
0 0 -2 0 -13 -13 -15 -20 -16 0 -5 0 -10 -6 -1 0 0 0 0 0 0 0 0 0 -3 0 -2 -1 -1 0 -1 0 -1 -1 -2 0 0 -1 0 0 0 -4 0 0 0 0 0 0 0 0 0 0 0 0
0 0 0 0 0 0 -6 -4 0 0 0 0 0 -6 -1 0 0 0 0 0 -1 0 0 -8 -2 -1 0 -1 0 0 0 -1 0 -1 -1 -1 -1 -1 0 0 -2 -32 0 0 0 0 0 0 0 0 0 0 0 0
0 0 0 0 0 0 0 0 0 0 0 0 0 0 0 0 -1 0 -2 0 0 0 0 0 0 -4 0 0 0 0 0 -2 -2 -1 -4 -2 0 -3 -2 0 0 -1 0 0 0 0 0 0 0 0 0 0 0 0
0 0 0 0 0 0 0 0 0 0 0 0 0 0 0 0 -1 0 0 0 0 0 0 0 0 -2 0 0 0 0 0 0 0 0 0 0 0 0 0 0 0 0 0 0 0 0 0 0 0 0 0 0 0 0
0 0 0 0 0 0 0 0 0 0 0 0 0 0 0 -4 0 0 0 0 0 -1 0 0 0 -2 0 0 0 0 0 0 0 0 0 0 0 0 0 0 0 0 0 0 0 0 0 0 0 0 0 0 0 0
0 0 0 0 0 0 0 0 0 0 0 0 0 0 -1 0 0 0 0 0 0 0 0 0 0 0 0 0 0 0 0 0 0 0 0 0 0 0 0 0 0 0 0 0 0 0 0 0 0 0 0 0 0 0
0 0 0 0 0 0 0 0 0 0 0 0 0 0 0 0 0 -1 0 0 0 0 0 0 0 0 0 0 0 0 0 0 0 0 0 0 0 0 0 0 0 0 0 0 0 0 0 0 0 0 0 0 0 0
0 0 0 0 0 0 0 0 0 0 0 0 0 0 -1 0 0 0 0 -1 0 0 0 0 0 0 0 0 0 0 0 0 0 0 0 0 0 0 0 0 0 0 0 0 0 0 0 0 0 0 0 0 0 0
0 0 0 0 0 0 0 0 0 0 0 0 0 -1 -3 -1 0 0 0 -1 0 0 0 0 0 0 0 0 0 0 0 0 0 0 0 0 0 0 0 0 0 0 0 0 0 0 0 0 0 0 0 0 0 0
0 0 0 0 0 0 0 0 0 0 0 0 0 0 0 -5 -2 0 0 0 0 0 0 0 0 0 0 0 0 0 0 0 0 0 0 0 0 0 0 0 0 0 0 0 0 0 0 0 0 0 0 0 0 0
0 0 0 0 0 0 0 0 0 0 0 0 0 0 0 0 0 -1 0 0 0 0 0 0 0 0 0 0 0 0 0 0 0 0 0 0 0 0 0 0 0 0 0 0 0 0 0 0 0 0 0 0 0 0
0 0 0 0 0 0 0 0 0 0 0 0 0 0 -1 0 0 0 0 0 0 0 0 0 0 0 0 0 0 0 0 0 0 0 0 0 0 0 0 0 0 0 0 0 0 0 0 0 0 0 0 0 0 0
0 0 0 0 0 0 0 0 0 0 0 0 0 0 0 -1 0 0 0 0 0 0 0 0 0 0 0 0 0 0 0 0 0 0 0 0 0 0 0 0 0 0 0 0 0 0 0 0 0 0 0 0 0 0
0 0 0 0 0 0 0 0 0 0 0 0 0 0 0 0 0 0 0 0 0 0 0 0 0 0 0 0 0 0 0 0 0 0 0 0 0 0 0 0 0 0 0 0 0 0 0 0 0 0 0 0 -1 0
0 0 0 0 0 0 0 0 0 0 0 0 0 0 0 0 0 0 0 0 0 0 0 0 0 0 0 0 0 0 0 0 0 0 0 0 0 0 0 0 0 0 0 0 0 0 0 0 -1 -1 -1 0 0 0
0 0 0 0 0 0 0 0 0 0 0 0 0 0 0 0 0 0 0 0 0 0 0 0 0 0 0 0 0 0 0 0 0 0 0 0 0 0 0 0 0 0 0 0 -1 0 0 -1 0 0 0 0 0 0
0 0 0 0 0 0 0 0 0 0 0 -1 -1 0 0 0 0 0 0 0 0 0 0 0 0 0 0 0 0 0 0 0 0 0 0 0 0 0 0 0 0 -1 0 0 -1 0 0 0 0 0 0 0 0 0
0 0 0 0 0 0 0 0 0 0 0 0 0 0 0 0 0 0 0 0 0 0 0 0 0 0 0 0 0 0 0 0 0 0 0 0 0 0 0 0 0 0 0 0 0 0 0 0 0 0 0 0 0 0
0 0 0 0 0 0 0 0 0 0 0 0 0 0 0 0 0 0 0 0 0 0 0 0 0 0 0 0 0 0 0 0 0 0 0 0 0 0 0 0 0 0 0 0 0 0 0 0 0 0 0 0 0 0
0 0 0 0 0 0 0 0 0 0 0 0 0 0 0 0 0 0 0 0 0 0 0 0 0 0 0 0 0 0 0 0 0 0 0 0 -1 0 0 0 0 0 0 0 0 0 0 0 0 0 0 0 0 0
0 0 0 0 0 0 0 0 0 0 0 0 0 0 0 0 0 0 0 0 0 0 0 0 0 0 0 0 0 0 0 0 0 0 0 0 0 0 0 0 0 0 0 0 0 0 0 0 0 0 0 0 0 0
0 0 0 0 0 0 0 0 0 0 0 0 0 0 0 0 0 0 0 0 0 0 0 0 0 0 0 0 0 0 0 0 0 0 0 0 0 0 0 0 0 0 0 0 0 0 0 0 0 0 0 0 0 0
0 0 0 0 0 0 0 0 0 0 0 0 0 0 0 0 0 0 0 0 0 0 0 0 0 0 0 0 0 0 0 0 0 0 0 0 0 0 0 0 0 0 0 0 0 0 0 0 0 0 0 0 0 0
0 0 0 0 0 0 0 0 0 0 0 0 0 0 0 0 0 0 0 0 0 0 0 0 0 0 0 0 0 0 0 0 0 0 0 0 0 0 0 0 0 0 0 0 0 0 0 0 0 0 0 0 0 0
0 0 0 0 0 0 0 0 0 0 0 0 0 0 0 0 0 0 0 0 0 0 -1 0 0 0 0 0 0 0 0 0 0 0 0 0 0 0 0 0 0 0 0 0 0 0 0 0 0 0 0 0 0 0
0 0 0 0 0 0 0 0 0 0 0 0 0 0 0 0 0 0 0 0 0 0 0 0 0 0 0 0 0 0 0 0 0 0 0 0 0 0 0 0 0 0 0 0 0 0 0 0 0 0 0 0 0 0
Wind_Speed
29 32 36 37 38 26 18 16 16 24 18 20 23 19 22 25 26 24 21 19 23 25 25 20 22 27 26 26 23 25 24 31 31 34 38 45 49 52 57 65 53 41 41 46 45 47 60 34 27 31 30 25 20 14
31 33 35 38 39 27 18 14 13 15 15 19 24 23 17 23 27 27 23 21 22 21 19 17 26 25 22 27 30 28 25 28 23 27 35 42 48 43 52 65 56 51 43 45 39 42 19 24 28 22 23 20 16 13
30 32 34 36 34 20 12 9 12 14 8 11 16 19 15 10 20 26 22 18 20 24 24 23 28 16 18 23 29 35 35 19 24 35 37 37 41 34 50 60 50 51 48 45 39 41 38 34 21 17 13 9 5 7
28 31 32 34 32 17 10 10 8 7 11 17 14 13 11 6 12 19 20 17 20 18 24 23 13 32 29 23 25 26 37 22 31 39 42 40 46 36 39 37 42 50 40 42 39 27 23 25 22 13 9 7 8 7
28 29 31 31 30 23 15 12 15 16 14 16 15 10 9 8 8 12 16 16 22 17 19 18 16 23 21 21 22 25 37 27 41 44 41 47 46 44 44 43 52 49 41 43 42 30 31 27 16 11 7 6 10 10
27 28 29 30 29 24 19 21 21 16 14 9 8 8 9 6 7 10 12 16 21 18 16 25 19 22 17 15 18 22 23 24 33 42 47 47 46 40 39 41 42 46 34 35 40 27 28 18 12 9 7 3 7 12
27 28 28 28 27 27 24 19 28 32 6 3 5 17 10 8 8 10 14 10 20 15 15 20 21 15 14 14 16 21 21 27 38 45 50 46 43 39 41 48 45 32 28 24 15 9 11 8 13 9 6 6 6 8
26 27 27 27 27 27 27 24 28 28 31 15 15 17 21 20 19 4 10 13 20 7 7 21 25 18 6 11 15 14 21 29 38 41 41 45 38 39 43 43 40 33 18 18 20 20 15 11 7 7 5 4 5 5
26 26 26 26 25 26 26 27 25 24 16 11 13 14 22 22 15 12 7 19 9 26 26 25 24 20 14 22 8 7 22 41 37 45 44 36 38 40 39 38 37 24 24 19 12 10 7 8 8 8 5 4 6 7
25 25 25 24 23 24 24 24 25 19 16 12 16 19 21 23 27 19 18 26 24 24 24 25 24 26 20 14 29 27 26 35 35 39 29 38 46 41 38 27 21 21 14 13 14 17 10 9 6 4 4 3 2 3
24 24 23 23 22 21 22 21 22 19 15 15 16 18 22 23 19 19 21 23 22 18 20 22 26 24 21 21 25 28 27 29 31 31 29 32 34 37 31 25 18 15 14 17 14 10 9 4 4 2 2 1 2 3
24 24 24 23 22 21 20 20 19 17 17 13 13 16 22 18 17 18 21 20 18 17 17 21 25 23 21 21 20 23 24 24 27 19 27 33 28 24 24 19 14 12 10 9 6 7 4 2 1 3 2 2 4 5
25 25 24 23 22 20 20 19 17 11 14 14 11 11 20 19 19 19 20 18 18 17 16 17 19 22 22 20 19 20 20 26 17 23 26 27 22 18 11 4 3 3 6 2 1 2 2 2 2 3 4 5 7 8
25 25 24 23 22 21 20 19 14 14 14 15 10 12 17 19 20 20 22 21 20 22 16 17 17 16 18 18 17 18 19 19 21 25 24 18 13 13 10 5 3 3 4 3 3 3 6 6 5 6 6 8 9 10
25 25 24 20 22 22 21 20 5 14 14 14 14 13 16 20 20 19 18 15 14 13 13 11 14 17 17 17 17 17 18 20 19 20 18 9 3 3 6 5 3 3 3 3 3 5 4 5 6 8 10 10 10 11
25 24 17 22 22 22 21 19 14 15 15 14 14 15 16 7 8 11 12 12 12 15 16 16 18 18 19 18 19 20 20 21 18 16 10 3 2 3 4 2 2 3 4 5 3 4 5 7 9 11 11 11 11 11
23 18 21 23 23 22 19 14 12 13 15 16 17 18 18 18 18 10 14 15 15 16 16 16 16 18 16 18 19 18 19 17 13 9 5 2 1 1 1 2 2 2 3 4 6 7 7 9 11 11 11 10 11 12
19 22 24 23 21 19 14 14 12 12 12 14 17 18 18 17 17 16 16 16 16 17 16 16 16 17 17 17 16 15 13 11 8 5 2 4 5 5 6 6 4 4 6 6 7 9 9 8 7 7 9 9 10 12
25 26 24 22 19 16 14 13 13 12 11 11 12 14 16 16 15 15 15 17 16 16 15 16 15 15 14 14 14 12 9 7 5 5 4 5 5 5 5 5 4 4 4 5 5 5 5 5 6 7 8 8 9 10
22 22 20 21 17 15 14 13 13 12 10 9 9 11 12 13 14 14 15 17 16 15 16 15 15 14 14 14 13 11 9 8 8 7 5 5 6 6 6 5 5 5 5 5 4 5 5 5 5 6 6 7 9 10
19 18 19 17 15 15 15 14 13 12 9 10 8 10 11 11 11 11 12 15 15 15 14 14 15 15 14 12 12 13 15 15 10 7 7 5 5 4 3 4 3 3 2 1 1 1 2 2 4 5 7 8 9 11
18 19 17 16 16 15 15 15 13 11 11 9 8 10 10 10 11 12 13 12 13 13 12 12 13 14 13 11 11 10 10 10 10 11 11 13 9 4 3 3 3 4 4 3 2 1 1 2 3 5 6 7 8 9
19 17 17 17 17 17 16 15 14 12 12 9 10 11 11 11 11 11 12 11 11 12 11 11 11 12 11 10 8 7 7 8 9 10 13 13 12 8 5 4 4 3 2 1 1 1 1 2 3 3 5 6 7 9
17 18 18 18 18 17 16 16 15 14 13 11 11 12 11 11 10 11 12 11 11 11 11 10 9 8 8 7 7 5 6 7 7 7 8 11 13 12 10 7 7 7 7 5 3 1 1 1 2 4 4 6 8 9
19 20 19 20 18 17 17 16 16 16 15 13 12 12 11 10 11 11 12 11 11 11 11 11 8 5 5 5 4 7 9 7 4 4 4 5 7 9 9 8 9 7 8 9 5 3 2 4 4 5 6 8 9 11
23 21 21 20 19 19 17 18 17 16 14 14 14 13 12 11 11 12 11 11 11 11 12 12 10 7 5 5 5 4 7 8 3 3 2 3 6 7 7 7 7 3 6 8 9 9 8 6 6 9 9 10 11 12
24 22 20 19 18 17 17 17 16 16 16 16 13 12 12 14 13 12 12 12 12 13 14 13 12 9 7 6 5 10 7 3 7 7 2 3 4 5 7 10 13 6 5 6 7 11 11 11 12 11 10 11 12 11
22 21 21 19 19 18 18 18 18 18 17 15 11 14 14 14 13 11 12 12 14 15 16 16 13 10 8 6 7 5 5 5 6 5 4 6 7 7 5 4 2 9 6 8 9 7 9 11 12 11 12 12 11 11
22 20 19 20 19 19 20 20 19 18 16 14 15 15 14 14 13 12 12 13 13 15 16 17 17 16 13 9 6 4 2 3 5 7 11 9 4 12 8 3 5 4 4 6 6 8 10 10 10 11 11 11 11 11
22 18 21 21 21 21 19 18 18 16 15 14 13 12 12 12 12 12 12 12 13 15 16 17 17 15 12 9 6 6 5 6 12 3 11 15 11 1 2 2 4 5 6 6 5 4 5 6 6 7 9 9 10 10
19 19 20 20 21 19 16 15 14 14 14 14 13 12 11 10 11 13 14 16 16 16 16 16 16 15 13 12 8 4 4 8 11 11 11 6 2 3 3 3 4 5 6 6 7 7 8 8 8 9 9 9 10 10
21 21 20 21 19 17 15 16 15 16 15 14 14 13 12 13 14 15 17 17 16 16 17 17 16 16 15 14 13 13 14 10 2 9 6 4 1 3 4 4 5 5 6 6 6 6 8 8 8 8 9 9 10 9
20 20 20 18 18 18 17 17 17 17 17 17 16 16 16 16 16 16 16 17 16 17 18 18 18 17 17 17 16 17 17 15 13 10 9 7 3 3 3 3 4 5 6 5 5 7 8 7 7 8 8 8 9 9
Wind_Direction
280 283 283 288 295 314 312 308 303 308 302 300 296 271 250 241 232 227 238 229 225 252 250 267 244 232 272 272 263 285 284 280 277 272 268 263 259 253 247 239 246 244 236 240 247 254 255 264 263 259 270 286 289 276
280 285 288 291 290 318 321 319 316 314 310 309 306 304 272 235 221 216 232 220 220 254 274 256 235 262 245 264 266 267 278 282 285 278 269 263 256 253 244 238 242 252 242 239 244 247 276 272 268 270 273 280 281 277
284 290 298 294 305 330 332 327 330 328 305 309 315 319 317 232 213 210 226 231 228 243 261 251 228 249 245 231 257 264 270 255 277 267 271 264 252 252 240 236 248 254 247 243 247 250 254 259 277 279 286 287 258 266
293 299 299 300 309 340 348 345 342 336 332 338 334 326 324 264 219 210 223 231 218 273 270 285 260 221 221 259 250 241 219 271 275 264 257 250 238 242 242 247 252 246 241 238 240 249 251 256 270 283 290 298 278 272
300 303 304 309 314 335 354 358 353 353 349 345 349 346 333 308 280 227 221 223 204 231 294 298 290 279 267 248 248 212 207 210 257 252 253 239 238 247 251 257 251 245 235 235 236 242 256 265 267 271 272 286 281 279
301 307 309 310 310 331 349 354 349 357 355 353 341 321 317 286 274 281 274 218 196 204 275 286 297 288 281 258 227 229 214 213 260 251 241 235 237 236 246 244 247 239 242 248 245 259 263 262 258 263 272 293 299 292
302 307 309 309 309 321 335 356 325 301 262 320 351 354 347 291 271 263 291 288 177 179 277 289 301 300 281 260 256 258 249 260 254 242 231 228 228 241 247 244 240 248 240 242 240 241 260 241 265 267 286 303 320 315
300 305 307 307 306 317 319 334 325 295 325 23 31 29 18 313 146 176 278 113 142 207 297 260 227 182 154 170 183 195 263 253 239 227 233 232 244 242 237 242 240 236 247 244 251 263 261 262 261 276 296 319 313 322
296 301 304 304 300 309 320 312 288 285 258 73 56 58 49 51 45 71 85 122 122 206 190 194 192 192 148 189 183 262 254 232 225 224 228 239 246 243 237 240 228 239 241 241 255 258 248 264 277 283 296 322 307 316
292 296 297 299 299 298 305 288 295 281 242 94 61 50 64 92 86 71 196 175 180 198 199 196 210 211 183 172 200 215 224 210 212 223 238 246 235 237 244 259 257 249 253 251 256 260 273 288 285 296 300 322 344 332
289 290 290 291 291 282 289 289 296 291 52 39 46 90 123 142 175 168 156 161 161 168 174 184 197 196 209 196 192 198 202 211 226 239 241 236 240 236 242 252 263 261 255 264 265 267 279 263 256 284 325 7 35 7
282 282 283 285 278 277 283 289 294 296 22 334 39 122 161 191 182 172 170 169 157 179 177 200 198 187 185 193 221 222 233 232 229 249 244 239 239 239 238 251 262 264 260 258 259 275 280 285 185 105 80 47 23 20
277 275 276 278 271 272 278 282 277 108 67 54 319 35 180 207 219 205 197 189 197 190 186 194 221 176 174 168 197 236 252 239 267 248 243 246 256 257 263 274 277 259 250 320 238 57 103 120 90 82 67 43 41 38
274 271 269 271 270 271 275 280 260 76 101 116 31 321 283 246 236 253 247 230 240 240 185 167 222 221 193 221 234 232 234 247 261 256 262 279 270 262 256 256 234 224 222 220 82 105 89 85 73 57 47 56 60 56
273 270 267 283 275 273 274 283 41 95 108 108 126 116 306 287 289 281 280 294 305 292 286 295 296 279 251 262 274 282 266 261 269 265 276 302 321 270 238 219 147 152 163 152 96 90 85 68 63 64 64 61 56 52
275 268 285 278 278 273 273 286 37 95 85 99 97 96 115 51 342 346 345 347 340 300 299 309 288 275 275 284 279 273 272 267 279 295 310 308 55 83 98 125 110 126 102 95 89 81 76 75 77 75 68 61 56 53
274 280 277 278 276 270 273 330 19 24 66 94 101 96 101 88 101 333 316 324 354 317 302 303 297 283 298 295 287 301 287 297 310 315 321 59 132 118 92 102 124 147 97 83 82 83 81 80 82 80 73 62 49 35
275 272 273 275 277 271 306 317 342 342 26 60 103 109 103 100 103 75 23 333 341 329 327 311 315 298 301 299 303 320 327 330 343 355 33 74 75 83 87 93 88 79 79 78 81 85 87 87 78 65 65 56 43 35
270 265 265 271 276 285 300 310 313 314 328 10 47 75 92 89 71 95 103 14 11 7 15 345 326 316 317 323 325 346 4 2 29 34 46 54 59 67 73 69 64 61 68 81 85 78 76 60 65 65 60 47 33 27
271 267 270 271 279 284 291 302 307 312 317 349 16 53 57 73 85 91 52 352 356 8 4 9 7 355 347 351 360 31 36 58 73 68 46 43 56 62 66 62 52 69 66 67 67 72 63 62 54 52 36 34 34 33
275 273 272 276 280 283 288 293 299 306 320 319 348 359 5 18 38 60 69 19 23 21 23 32 25 16 3 16 23 54 76 85 69 48 69 58 48 38 22 4 9 358 359 17 53 34 42 41 48 33 45 33 36 33
275 274 271 274 276 278 283 288 292 305 307 320 334 341 352 0 14 20 27 38 32 28 29 36 34 26 30 39 43 48 51 42 41 60 75 91 80 46 6 27 2 307 308 290 276 269 338 43 47 42 35 37 27 28
275 271 268 271 270 271 276 277 281 289 296 305 315 324 331 343 352 7 12 23 30 22 19 21 19 14 26 30 41 28 10 21 39 65 97 96 95 81 63 48 31 30 352 25 104 98 71 62 47 37 44 37 29 36
273 265 264 266 266 268 275 273 276 281 291 296 305 312 325 334 346 347 353 6 16 10 10 7 7 33 25 31 33 18 337 346 12 46 79 99 106 106 99 82 78 76 91 97 96 58 32 38 68 66 47 53 60 55
260 258 264 260 265 266 267 269 271 275 280 286 295 305 317 325 337 344 342 354 1 6 8 9 29 53 41 27 17 321 305 316 357 39 62 75 85 86 89 88 94 87 98 100 92 96 72 90 78 81 81 77 76 73
255 259 259 257 259 262 264 265 266 272 278 281 288 299 305 317 324 329 341 349 5 9 12 13 22 58 59 56 74 353 301 298 359 16 30 83 112 112 105 107 109 87 109 110 112 113 110 99 98 101 93 92 90 84
254 258 259 263 263 264 265 269 269 271 272 279 284 292 301 304 311 324 329 331 340 339 346 360 9 40 55 24 16 320 321 334 302 309 13 92 95 105 115 125 136 116 112 114 119 122 121 117 116 110 101 98 100 89
258 258 256 255 258 261 264 263 264 267 274 282 282 284 293 300 309 321 324 327 327 329 330 342 3 28 28 81 347 335 318 310 315 325 322 302 296 293 311 318 6 112 103 113 117 112 116 118 120 115 114 109 98 90
256 259 256 254 259 261 261 263 266 271 276 273 278 284 291 302 310 315 316 318 327 330 330 329 335 343 342 7 30 359 36 127 127 119 126 124 125 249 269 307 90 95 94 99 100 109 118 117 117 117 112 104 95 88
257 256 256 255 255 258 264 268 267 273 277 278 286 291 295 300 304 310 315 320 325 329 326 324 324 331 343 342 360 1 327 284 271 166 136 143 139 154 133 112 108 107 108 105 96 79 79 87 89 94 97 97 97 93
259 254 258 258 259 264 268 272 274 275 277 280 285 284 286 293 299 306 307 304 309 316 319 322 326 324 322 324 323 355 358 298 278 276 277 293 251 144 130 114 115 119 121 120 119 117 114 112 114 117 117 114 112 107
253 252 253 256 260 262 265 265 267 268 272 274 277 280 280 283 284 291 298 301 306 308 311 312 309 310 311 309 297 290 295 300 298 276 279 297 176 141 126 116 115 114 121 125 125 126 130 123 123 127 127 124 122 117
254 252 254 258 259 256 259 262 265 267 269 270 273 275 277 279 282 288 296 301 303 303 301 302 303 303 300 297 295 288 284 285 285 284 283 279 258 183 178 158 134 126 125 123 125 132 135 132 129 131 130 129 127 122